Total_Precipitation_Accumulation
0.58 0.66 0.55 0.38 0.31 0.31 0.34 0.33 0.35 0.42 0.52 0.58 0.56 0.50 0.48 0.53 0.64 0.77 0.85 0.94 1.02 1.05 1.10 1.09 1.03 1.02 1.02 0.91 0.90 0.94 1.00 1.05 0.92 0.82 0.75 0.72 0.69 0.63 0.58 0.47 0.40 0.31 0.30
1.03 1.11 0.96 0.58 0.36 0.28 0.23 0.22 0.28 0.39 0.49 0.54 0.50 0.45 0.44 0.51 0.63 0.76 0.92 1.13 1.25 1.21 1.12 1.01 0.92 0.93 0.95 0.91 0.91 0.85 0.84 0.91 0.85 0.80 0.76 0.71 0.64 0.56 0.52 0.49 0.41 0.36 0.39
0.93 1.04 0.84 0.45 0.25 0.18 0.16 0.21 0.34 0.44 0.47 0.48 0.48 0.53 0.63 0.72 0.82 0.93 0.99 1.14 1.20 1.11 1.05 0.96 0.88 0.85 0.86 0.88 0.90 0.87 0.74 0.74 0.77 0.75 0.74 0.70 0.65 0.56 0.46 0.45 0.44 0.52 0.55
0.53 0.68 0.54 0.31 0.20 0.15 0.15 0.20 0.26 0.28 0.31 0.40 0.53 0.70 0.81 0.87 0.91 0.97 0.94 0.91 0.91 0.85 0.78 0.73 0.75 0.84 0.87 0.82 0.76 0.72 0.68 0.63 0.60 0.60 0.64 0.65 0.63 0.56 0.47 0.46 0.53 0.58 0.61
0.42 0.54 0.42 0.26 0.17 0.11 0.08 0.10 0.13 0.21 0.27 0.37 0.51 0.61 0.60 0.63 0.73 0.80 0.79 0.76 0.69 0.65 0.57 0.44 0.45 0.60 0.72 0.72 0.69 0.63 0.56 0.52 0.46 0.45 0.48 0.53 0.56 0.54 0.45 0.41 0.45 0.58 0.64
0.36 0.48 0.42 0.30 0.18 0.10 0.07 0.08 0.13 0.18 0.23 0.30 0.37 0.37 0.34 0.30 0.29 0.32 0.38 0.44 0.45 0.43 0.38 0.34 0.36 0.41 0.44 0.46 0.52 0.53 0.51 0.47 0.44 0.43 0.42 0.43 0.48 0.45 0.41 0.40 0.45 0.58 0.78
0.35 0.44 0.45 0.39 0.28 0.20 0.13 0.12 0.15 0.18 0.22 0.27 0.26 0.26 0.28 0.28 0.17 0.11 0.14 0.24 0.28 0.27 0.24 0.25 0.25 0.27 0.27 0.23 0.24 0.26 0.30 0.32 0.35 0.40 0.42 0.38 0.40 0.38 0.37 0.41 0.49 0.71 0.95
0.29 0.41 0.48 0.45 0.41 0.38 0.27 0.23 0.23 0.24 0.28 0.32 0.29 0.28 0.29 0.28 0.18 0.13 0.11 0.14 0.23 0.22 0.19 0.17 0.18 0.22 0.22 0.18 0.13 0.15 0.16 0.18 0.22 0.26 0.33 0.37 0.38 0.37 0.34 0.34 0.36 0.48 0.69
0.24 0.39 0.48 0.49 0.47 0.44 0.41 0.36 0.36 0.40 0.37 0.34 0.32 0.33 0.34 0.35 0.24 0.15 0.13 0.18 0.28 0.27 0.24 0.20 0.16 0.17 0.17 0.17 0.14 0.11 0.11 0.14 0.18 0.21 0.25 0.30 0.32 0.33 0.31 0.28 0.27 0.29 0.36
0.26 0.37 0.51 0.60 0.63 0.62 0.56 0.49 0.48 0.55 0.49 0.42 0.38 0.39 0.42 0.47 0.39 0.24 0.17 0.25 0.39 0.39 0.36 0.29 0.23 0.19 0.16 0.12 0.12 0.13 0.11 0.10 0.10 0.12 0.15 0.20 0.22 0.24 0.26 0.22 0.23 0.25 0.26
0.29 0.36 0.48 0.66 0.74 0.73 0.72 0.65 0.62 0.62 0.62 0.60 0.53 0.52 0.54 0.59 0.54 0.33 0.25 0.35 0.46 0.50 0.48 0.42 0.33 0.27 0.21 0.16 0.14 0.14 0.13 0.11 0.11 0.12 0.14 0.16 0.22 0.25 0.22 0.20 0.20 0.23 0.22
0.38 0.45 0.55 0.66 0.59 0.59 0.77 0.81 0.81 0.82 0.81 0.75 0.69 0.63 0.60 0.64 0.62 0.42 0.28 0.38 0.52 0.60 0.61 0.54 0.46 0.38 0.28 0.23 0.21 0.18 0.16 0.14 0.14 0.15 0.17 0.17 0.19 0.23 0.23 0.19 0.19 0.18 0.19
0.47 0.52 0.59 0.65 0.72 0.81 0.87 0.89 0.90 0.90 0.90 0.84 0.78 0.73 0.68 0.70 0.71 0.51 0.37 0.45 0.55 0.65 0.74 0.69 0.57 0.48 0.41 0.31 0.28 0.26 0.21 0.17 0.19 0.18 0.17 0.16 0.14 0.15 0.17 0.16 0.17 0.15 0.14
0.54 0.55 0.59 0.67 0.73 0.81 0.95 1.00 1.01 0.95 0.96 0.93 0.83 0.78 0.76 0.81 0.84 0.68 0.51 0.54 0.65 0.70 0.77 0.78 0.68 0.58 0.51 0.42 0.36 0.34 0.28 0.25 0.25 0.21 0.18 0.17 0.14 0.13 0.13 0.12 0.11 0.10 0.09
0.64 0.62 0.61 0.67 0.77 0.83 0.91 1.00 1.07 1.10 0.98 0.93 0.84 0.76 0.76 0.83 0.88 0.72 0.61 0.65 0.80 0.86 0.80 0.79 0.77 0.66 0.59 0.50 0.43 0.42 0.40 0.38 0.33 0.27 0.22 0.21 0.18 0.14 0.12 0.10 0.07 0.05 0.04
0.78 0.69 0.65 0.67 0.76 0.84 0.92 0.93 0.83 0.83 0.69 0.62 0.62 0.57 0.59 0.64 0.77 0.66 0.57 0.65 0.81 0.87 0.80 0.73 0.74 0.68 0.59 0.52 0.47 0.48 0.46 0.42 0.36 0.30 0.25 0.22 0.17 0.12 0.10 0.08 0.06 0.04 0.03
0.90 0.80 0.72 0.68 0.73 0.79 0.88 1.00 1.03 0.87 0.70 0.57 0.50 0.42 0.43 0.50 0.58 0.58 0.56 0.61 0.70 0.74 0.72 0.66 0.63 0.61 0.54 0.51 0.48 0.48 0.45 0.42 0.36 0.31 0.25 0.22 0.17 0.11 0.08 0.07 0.05 0.04 0.03
0.96 0.86 0.76 0.74 0.73 0.75 0.82 0.94 1.08 1.07 0.86 0.63 0.53 0.44 0.38 0.40 0.44 0.50 0.52 0.55 0.62 0.64 0.60 0.57 0.54 0.54 0.49 0.50 0.50 0.50 0.47 0.41 0.34 0.31 0.25 0.19 0.14 0.09 0.07 0.06 0.04 0.02 0.02
0.93 0.85 0.77 0.77 0.76 0.73 0.79 0.86 0.94 1.00 0.93 0.81 0.67 0.52 0.42 0.37 0.40 0.45 0.46 0.50 0.56 0.55 0.50 0.48 0.46 0.45 0.44 0.45 0.47 0.48 0.44 0.35 0.30 0.26 0.20 0.16 0.12 0.08 0.06 0.04 0.03 0.02 0.01
0.89 0.72 0.65 0.67 0.71 0.73 0.78 0.82 0.83 0.87 0.88 0.83 0.72 0.52 0.37 0.35 0.38 0.40 0.43 0.48 0.50 0.44 0.40 0.40 0.37 0.37 0.37 0.38 0.40 0.41 0.36 0.30 0.24 0.18 0.13 0.11 0.08 0.06 0.04 0.03 0.02 0.01 0.01
0.88 0.72 0.54 0.52 0.60 0.66 0.73 0.77 0.75 0.72 0.75 0.72 0.60 0.42 0.27 0.23 0.26 0.30 0.37 0.40 0.39 0.35 0.32 0.30 0.27 0.28 0.29 0.28 0.28 0.26 0.25 0.21 0.16 0.10 0.08 0.06 0.04 0.04 0.03 0.02 0.01 0.01 0.00
0.86 0.77 0.60 0.52 0.54 0.60 0.66 0.70 0.67 0.60 0.58 0.56 0.48 0.35 0.24 0.19 0.22 0.26 0.30 0.30 0.28 0.27 0.24 0.20 0.18 0.18 0.17 0.16 0.15 0.15 0.15 0.12 0.08 0.06 0.04 0.03 0.03 0.02 0.01 0.01 0.01 0.01 0.00
0.83 0.74 0.62 0.55 0.56 0.54 0.56 0.60 0.57 0.51 0.46 0.42 0.36 0.27 0.20 0.18 0.20 0.25 0.26 0.24 0.22 0.19 0.16 0.12 0.10 0.10 0.09 0.08 0.07 0.08 0.07 0.05 0.04 0.03 0.02 0.02 0.02 0.02 0.01 0.01 0.01 0.00 0.00
0.76 0.70 0.58 0.53 0.55 0.57 0.53 0.51 0.45 0.41 0.36 0.30 0.25 0.20 0.17 0.19 0.22 0.21 0.19 0.16 0.13 0.09 0.07 0.06 0.05 0.05 0.05 0.04 0.04 0.04 0.03 0.02 0.01 0.01 0.01 0.01 0.01 0.01 0.00 0.00 0.00 0.00 0.00
0.72 0.71 0.60 0.50 0.49 0.50 0.45 0.39 0.36 0.34 0.27 0.22 0.19 0.18 0.19 0.19 0.18 0.15 0.12 0.09 0.05 0.04 0.03 0.03 0.03 0.03 0.03 0.02 0.02 0.01 0.01 0.01 0.00 0.00 0.00 0.00 0.00 0.00 0.00 0.00 0.00 0.00 0.00
0.65 0.65 0.57 0.47 0.41 0.38 0.34 0.32 0.30 0.24 0.19 0.15 0.14 0.15 0.14 0.11 0.09 0.08 0.06 0.03 0.02 0.02 0.02 0.02 0.02 0.01 0.01 0.01 0.01 0.00 0.00 0.00 0.00 0.00 0.00 0.00 0.00 0.00 0.00 0.00 0.00 0.00 0.00